Wind_Speed
14 14 15 16 17 18 19 20 21 21 23 25 26 27 27 27 28 29 29 29 30 30 29 28 28 28 28 28 29 28 27 28 28 27 26 26 26 27 27 27 27 27 27 26
12 13 14 15 16 17 17 18 19 20 22 23 24 25 24 24 25 26 26 27 28 29 30 29 29 29 29 29 29 30 29 28 29 29 28 27 27 29 29 29 28 27 27 26
11 12 13 14 15 16 16 17 17 19 21 22 22 23 23 23 23 24 25 25 26 26 27 28 29 29 30 30 30 29 27 28 27 27 27 27 29 29 29 29 29 28 26 26
10 11 11 12 13 14 16 17 18 20 21 20 21 22 21 21 22 22 23 24 25 25 26 28 29 29 30 30 29 27 26 27 27 27 27 28 29 29 28 28 29 29 28 27
9 10 10 10 12 13 14 15 17 20 21 21 21 22 21 21 21 21 22 23 25 26 27 28 28 29 29 29 28 28 28 28 27 27 26 25 26 27 27 28 30 30 29 28
8 9 9 9 10 12 12 13 15 18 20 21 20 22 21 21 21 23 23 24 25 26 27 27 28 28 29 29 29 29 28 27 26 25 26 25 26 27 27 29 30 30 30 29
8 9 10 10 10 11 11 12 13 15 17 19 20 21 21 21 21 22 23 25 25 26 27 28 28 29 30 30 29 29 28 28 28 26 26 26 27 27 27 28 28 29 30 31
8 8 10 10 10 11 11 11 12 13 15 16 17 19 19 20 20 22 23 23 24 26 26 27 28 29 29 30 29 29 29 29 29 27 27 27 27 28 28 28 28 29 30 32
7 7 8 9 10 11 11 12 12 13 13 14 15 16 17 20 21 22 22 23 24 25 26 27 28 28 28 28 29 29 29 29 29 28 28 28 28 27 28 28 28 30 30 31
7 7 7 8 10 10 10 10 11 13 14 15 16 16 16 18 19 20 20 21 22 23 25 27 28 29 30 30 30 30 30 28 27 27 27 27 28 29 29 30 30 31 32 33
8 8 7 8 9 10 10 11 11 12 14 15 15 16 17 18 18 19 21 21 21 22 24 25 26 27 28 29 29 29 29 28 27 27 28 28 28 29 30 30 31 32 33 34
7 7 8 8 8 8 9 10 10 12 13 14 15 16 16 18 19 18 18 18 19 20 22 23 24 25 26 26 26 27 27 27 28 28 28 29 29 29 29 30 31 32 33 33
7 7 7 7 8 8 8 8 9 10 12 13 15 16 16 17 17 18 18 18 20 20 20 21 22 22 22 23 24 24 24 24 25 26 27 28 28 28 29 30 30 31 32 33
6 6 6 7 8 8 8 9 9 11 12 13 14 15 16 16 17 18 18 20 20 19 19 19 19 20 21 21 21 23 23 23 23 24 25 26 26 27 27 28 29 30 31 32
5 5 6 6 7 8 8 9 10 11 12 13 14 15 16 16 17 18 18 19 19 19 20 20 19 19 19 19 19 20 21 21 21 22 23 24 25 26 27 27 28 29 29 30
4 4 5 5 7 8 8 9 11 11 12 14 15 16 16 17 18 18 18 18 18 19 19 18 18 17 17 18 18 19 19 19 20 21 22 23 23 24 25 26 26 27 27 27
4 4 5 6 7 8 9 10 10 11 12 13 15 16 17 18 17 17 18 17 17 17 17 17 17 17 18 17 17 17 18 20 20 20 21 22 22 22 23 23 24 24 25 25
3 4 5 6 7 8 9 10 10 11 12 14 15 16 17 18 18 18 17 17 17 17 16 16 17 17 17 17 17 17 17 17 18 18 19 19 20 20 21 22 23 23 23 24
3 3 4 6 7 8 9 11 12 12 13 14 15 17 17 18 18 18 17 17 16 17 16 15 16 17 17 16 16 16 16 16 17 17 17 17 18 18 19 20 21 21 21 21
3 4 5 6 8 9 10 12 13 14 14 15 16 17 18 18 17 17 16 16 15 15 14 14 14 15 15 15 16 16 15 15 15 16 16 17 17 17 18 18 19 19 19 19
3 4 6 7 9 10 12 13 15 15 15 16 17 18 18 18 17 16 15 15 14 14 13 13 13 13 13 13 14 14 14 14 14 15 15 15 15 16 17 17 18 17 17 17
4 5 6 8 9 11 12 14 16 16 17 17 18 18 18 18 17 15 14 13 13 13 12 12 12 11 12 12 12 12 12 12 12 13 13 14 14 15 15 15 15 16 16 16
4 5 6 8 9 11 13 15 16 17 18 18 18 18 18 18 17 15 13 12 12 11 11 11 11 11 11 10 10 10 10 10 11 11 11 12 13 13 14 14 14 14 14 14
4 5 6 7 9 11 13 15 16 17 18 18 18 18 18 18 17 15 13 11 11 10 10 10 10 10 9 8 8 9 9 9 9 10 10 11 11 12 12 12 12 12 12 12
4 4 6 7 9 11 13 15 16 17 18 18 18 18 18 18 17 15 13 11 9 9 8 8 7 6 6 6 7 7 7 8 8 9 9 10 10 10 11 11 11 11 11 11
3 4 5 7 9 11 13 15 16 17 18 18 17 18 18 17 16 15 13 11 10 9 8 7 6 5 5 5 5 6 6 6 7 7 8 8 9 9 10 10 10 10 10 9
Wind_Direction
276 274 270 267 263 258 255 250 244 238 238 239 239 239 239 238 239 241 242 243 246 249 252 255 259 262 265 267 270 270 271 273 269 266 260 258 255 250 245 245 247 245 246 249
277 275 270 267 261 257 254 248 241 236 236 239 238 238 237 237 239 241 242 244 246 249 252 255 259 262 264 266 268 268 269 269 267 264 259 256 252 252 249 246 248 250 251 251
276 276 272 269 264 259 252 246 240 235 235 238 239 238 237 238 239 240 242 244 247 250 252 255 259 261 263 265 268 269 266 266 263 260 256 255 253 250 252 251 250 251 253 255
275 275 274 273 270 264 256 250 242 236 236 240 242 241 239 240 241 243 245 247 249 251 253 256 259 261 261 263 264 267 269 268 265 262 257 257 253 248 252 251 250 251 253 256
278 280 277 274 272 266 261 252 244 238 238 243 245 247 243 244 245 246 249 251 254 254 255 258 259 260 262 263 266 270 274 272 271 267 262 260 253 251 250 249 251 253 255 259
280 280 279 279 275 267 259 253 249 242 241 245 247 249 250 250 251 251 254 256 258 258 258 258 259 261 263 266 269 272 272 271 273 268 262 261 258 256 254 252 255 258 261 261
278 278 277 276 278 271 264 257 254 249 247 249 248 251 255 257 259 261 262 262 263 263 261 261 262 263 266 269 269 270 269 268 269 268 268 267 267 265 259 258 260 262 264 265
282 279 278 278 279 276 266 259 259 260 256 254 253 256 258 262 265 266 267 266 266 264 264 263 263 265 268 269 269 268 268 266 266 267 268 269 268 266 265 264 264 265 266 267
292 289 285 281 279 277 271 263 262 264 261 260 265 267 267 268 271 272 272 269 269 267 268 268 268 268 269 271 268 268 268 266 266 266 268 269 267 264 265 265 266 266 268 269
290 291 288 281 279 279 275 272 266 263 264 265 268 272 275 276 278 277 275 274 272 271 271 273 273 272 272 272 268 268 270 268 265 265 267 266 264 263 265 265 266 268 270 271
288 289 289 286 283 281 279 276 272 269 269 271 273 277 282 286 284 283 282 279 279 278 275 275 276 274 274 273 271 269 267 267 266 265 265 264 265 264 265 267 268 268 269 271
285 284 281 287 289 286 286 283 276 270 271 275 280 284 286 288 287 289 289 288 287 285 282 280 279 277 276 275 272 269 267 265 264 265 265 266 267 268 269 269 270 271 271 272
278 281 285 292 300 298 293 289 285 280 280 281 286 291 292 294 292 289 289 289 290 289 286 282 281 279 277 274 270 269 268 266 265 266 266 268 268 268 269 270 272 273 274 275
275 285 297 301 304 303 297 292 293 294 293 294 296 297 297 297 293 290 290 291 292 290 287 285 283 280 275 272 271 268 267 267 267 267 268 268 268 270 270 271 272 273 275 276
272 283 297 299 302 306 307 303 301 301 300 301 303 302 300 300 299 296 296 298 296 292 289 288 288 283 275 273 271 266 264 266 270 271 270 270 271 272 272 274 275 276 277 279
270 288 301 306 310 313 315 316 313 309 307 307 309 308 306 304 304 302 299 296 293 291 287 285 285 282 274 270 269 267 266 269 272 272 271 272 272 274 274 276 277 278 279 280
267 294 312 315 316 319 326 326 320 317 313 312 314 314 312 308 307 305 300 296 293 290 289 287 283 281 279 278 275 274 275 274 273 274 273 273 274 275 276 277 279 279 280 281
265 298 316 320 322 327 334 333 330 326 321 320 319 318 316 313 309 307 303 298 297 294 291 289 285 279 279 281 277 273 274 273 274 276 276 276 277 278 279 281 283 284 283 282
270 306 319 329 332 332 337 338 336 332 327 325 324 322 321 318 314 310 306 302 299 294 291 288 285 281 278 279 279 276 274 275 277 278 279 280 281 283 285 285 285 285 285 286
274 312 326 333 335 338 342 340 339 337 335 334 331 330 327 324 318 315 310 305 300 294 292 287 284 282 280 277 277 276 274 276 277 280 281 280 281 283 287 289 289 288 289 290
273 308 325 333 336 340 342 343 342 341 340 338 335 334 332 328 323 319 313 308 301 296 292 287 285 283 279 276 275 275 276 277 277 280 282 282 285 287 291 293 292 291 292 293
273 305 323 331 337 341 343 344 344 345 343 341 339 338 336 333 330 325 318 313 307 301 295 290 288 285 280 279 277 276 278 280 281 283 285 287 290 292 295 296 297 297 296 296
277 307 325 335 341 344 346 346 347 347 346 345 343 341 340 339 336 331 326 320 314 308 302 297 293 288 281 278 278 278 279 282 283 285 288 292 296 298 299 300 301 302 301 300
274 304 325 337 343 346 347 347 348 349 349 348 347 346 346 345 344 341 337 330 323 317 311 305 299 292 283 279 280 280 282 287 290 291 296 300 304 305 305 306 306 307 307 307
271 304 327 339 346 349 350 351 352 352 351 351 352 353 353 352 352 351 349 345 341 335 328 321 313 302 290 284 285 287 290 293 295 299 305 308 311 313 314 315 316 317 317 318
267 306 329 343 349 353 354 355 355 354 355 355 356 357 358 357 358 359 360 359 357 354 350 344 336 324 310 305 305 303 301 302 306 310 316 320 323 325 327 328 329 330 330 331
Height
5791 5791 5790 5790 5790 5790 5791 5792 5793 5794 5795 5796 5797 5799 5801 5803 5805 5807 5809 5812 5814 5817 5819 5821 5823 5824 5825 5825 5825 5824 5824 5825 5825 5826 5826 5828 5829 5829 5831 5832 5833 5833 5835 5836
5788 5788 5787 5787 5787 5787 5787 5788 5789 5790 5791 5792 5793 5795 5797 5799 5801 5803 5805 5807 5809 5811 5814 5815 5817 5818 5819 5819 5819 5818 5818 5818 5818 5819 5820 5821 5822 5823 5825 5826 5826 5827 5829 5830
5785 5785 5784 5784 5784 5784 5784 5785 5786 5787 5787 5788 5790 5792 5794 5795 5797 5799 5800 5802 5804 5806 5808 5809 5810 5812 5812 5813 5813 5813 5812 5811 5811 5812 5813 5814 5815 5816 5818 5819 5820 5822 5823 5824
5782 5782 5782 5781 5781 5781 5781 5782 5782 5783 5785 5786 5788 5788 5791 5792 5794 5795 5796 5798 5799 5800 5801 5803 5804 5805 5806 5806 5806 5806 5807 5806 5805 5805 5806 5807 5807 5808 5810 5811 5813 5815 5816 5817
5780 5780 5779 5779 5779 5778 5778 5778 5779 5780 5781 5783 5784 5785 5788 5788 5790 5791 5792 5793 5793 5794 5795 5796 5797 5798 5799 5799 5800 5800 5800 5799 5798 5798 5799 5800 5801 5801 5802 5803 5805 5807 5809 5810
5778 5777 5777 5776 5776 5775 5775 5776 5776 5777 5778 5780 5781 5782 5783 5785 5786 5786 5787 5787 5788 5789 5790 5790 5791 5791 5792 5793 5793 5793 5793 5792 5792 5792 5793 5794 5794 5795 5796 5797 5798 5800 5801 5802
5776 5775 5774 5774 5773 5773 5774 5774 5775 5775 5775 5776 5777 5778 5780 5781 5781 5781 5782 5783 5783 5783 5784 5785 5785 5786 5786 5786 5786 5786 5786 5786 5786 5786 5787 5787 5788 5788 5789 5790 5791 5792 5793 5794
5773 5773 5772 5772 5772 5771 5771 5772 5773 5773 5773 5773 5774 5775 5777 5776 5777 5776 5777 5777 5777 5778 5778 5778 5779 5779 5779 5779 5779 5779 5779 5779 5779 5779 5780 5780 5781 5782 5782 5782 5783 5785 5785 5786
5771 5771 5771 5770 5769 5769 5769 5769 5770 5770 5770 5770 5771 5771 5772 5772 5772 5772 5771 5771 5772 5772 5772 5772 5772 5773 5772 5772 5771 5771 5772 5771 5772 5772 5773 5773 5773 5774 5775 5775 5776 5776 5777 5777
5770 5769 5769 5768 5768 5767 5767 5767 5767 5767 5767 5767 5768 5768 5769 5768 5767 5767 5766 5766 5766 5766 5766 5766 5766 5765 5765 5765 5764 5764 5764 5764 5764 5765 5765 5766 5766 5767 5767 5767 5767 5768 5768 5769
5768 5768 5768 5767 5766 5765 5765 5765 5764 5764 5764 5764 5764 5767 5765 5764 5763 5762 5762 5761 5760 5760 5760 5759 5758 5758 5757 5757 5757 5756 5757 5757 5757 5757 5758 5758 5758 5758 5759 5759 5759 5760 5760 5760
5766 5766 5765 5765 5764 5763 5763 5762 5762 5762 5762 5761 5761 5764 5761 5759 5758 5757 5757 5756 5755 5754 5753 5753 5752 5751 5750 5749 5749 5749 5748 5749 5749 5749 5750 5750 5750 5751 5751 5751 5751 5751 5751 5751
5765 5765 5764 5764 5765 5763 5761 5760 5760 5760 5759 5758 5758 5760 5756 5755 5753 5752 5752 5750 5749 5748 5747 5746 5745 5744 5743 5742 5741 5741 5741 5741 5741 5741 5742 5742 5743 5743 5743 5743 5743 5743 5743 5742
5764 5764 5764 5763 5762 5760 5759 5758 5758 5757 5756 5755 5755 5754 5752 5750 5749 5747 5746 5745 5744 5742 5741 5740 5738 5737 5736 5735 5735 5734 5734 5734 5734 5735 5735 5735 5735 5735 5735 5735 5735 5735 5734 5734
5763 5762 5761 5761 5760 5759 5758 5757 5756 5754 5753 5752 5751 5749 5748 5746 5744 5742 5741 5739 5737 5736 5734 5733 5732 5730 5729 5729 5728 5728 5728 5728 5728 5728 5728 5728 5728 5728 5728 5727 5727 5727 5726 5725
5761 5761 5760 5759 5758 5757 5756 5755 5753 5752 5750 5749 5747 5746 5743 5741 5739 5737 5735 5734 5732 5730 5728 5727 5725 5724 5723 5723 5722 5722 5722 5722 5722 5722 5722 5721 5721 5721 5721 5720 5719 5719 5718 5717
5760 5760 5759 5758 5757 5756 5755 5753 5751 5749 5748 5746 5744 5743 5739 5736 5734 5732 5730 5728 5726 5724 5723 5721 5720 5719 5718 5717 5716 5716 5716 5716 5716 5716 5716 5715 5715 5714 5714 5713 5713 5712 5711 5710
5759 5759 5758 5757 5757 5755 5756 5751 5749 5747 5745 5743 5741 5738 5735 5732 5730 5727 5725 5722 5720 5719 5717 5716 5714 5713 5713 5712 5711 5711 5710 5710 5710 5710 5709 5709 5709 5708 5707 5707 5706 5705 5704 5703
5758 5758 5757 5756 5755 5754 5752 5749 5747 5745 5743 5740 5737 5734 5731 5727 5725 5722 5719 5717 5715 5713 5712 5710 5709 5708 5707 5706 5706 5705 5705 5705 5704 5704 5703 5703 5702 5702 5701 5700 5699 5698 5697 5696
5757 5757 5757 5755 5753 5752 5751 5748 5745 5743 5740 5737 5733 5730 5726 5723 5721 5718 5715 5712 5710 5708 5707 5706 5704 5703 5702 5701 5701 5700 5700 5700 5699 5699 5699 5698 5697 5696 5695 5694 5693 5692 5691 5689
5756 5756 5755 5754 5752 5750 5749 5745 5743 5741 5739 5734 5730 5726 5723 5720 5717 5714 5710 5708 5706 5704 5702 5701 5700 5698 5698 5697 5697 5696 5696 5695 5695 5695 5694 5693 5693 5692 5691 5690 5688 5687 5686 5684
5756 5755 5754 5753 5751 5751 5747 5744 5741 5739 5734 5730 5727 5723 5720 5716 5712 5709 5706 5704 5702 5700 5698 5697 5696 5694 5694 5693 5693 5692 5692 5691 5691 5691 5690 5689 5689 5688 5687 5685 5684 5683 5681 5680
5754 5755 5753 5752 5752 5748 5745 5742 5739 5736 5732 5728 5724 5721 5717 5713 5709 5706 5703 5700 5698 5696 5695 5693 5692 5691 5690 5690 5689 5689 5689 5688 5688 5687 5687 5686 5685 5684 5683 5682 5680 5679 5677 5676
5753 5753 5752 5750 5748 5746 5744 5741 5737 5734 5730 5726 5723 5719 5715 5711 5707 5703 5700 5698 5696 5694 5692 5690 5689 5688 5688 5687 5687 5686 5686 5685 5685 5684 5684 5683 5682 5681 5680 5678 5677 5675 5674 5672
5752 5751 5751 5749 5747 5745 5743 5740 5736 5733 5729 5725 5721 5717 5713 5709 5705 5702 5699 5696 5694 5692 5690 5688 5687 5686 5686 5685 5685 5684 5684 5683 5682 5682 5681 5680 5679 5678 5677 5676 5674 5673 5671 5670
5751 5751 5750 5749 5747 5745 5742 5739 5735 5732 5728 5724 5720 5716 5712 5708 5705 5701 5698 5695 5693 5691 5689 5687 5686 5685 5684 5684 5683 5682 5682 5681 5681 5680 5680 5679 5678 5676 5675 5674 5672 5670 5669 5668